{"data":{"norad_id":52761,"intl_designator":"2022-057AF","name":"ION SCV-006","alt_names":[],"object_type":"PAYLOAD","status":"ACTIVE","operator":null,"country":"IT","launch_date":"2022-05-25","launch_site_code":"AFETR","launch_vehicle":null,"mission":null,"orbit_class":"UNKNOWN","rcs_meters":null,"size_class":null,"mass_kg":null,"dimensions":null,"purposes":[],"wikipedia_slug":null,"has_3d_model":false,"image_url":null,"decayed_at":null,"tle_current":{"epoch":"2026-05-24T23:28:36.064416Z","epoch_age_seconds":67176,"freshness":"FRESH","line1":"1 52761U 22057AF  26144.97819519  .00011389  00000+0  24515-3 0  9994","line2":"2 52761  97.6072 292.5026 0017400 193.7810 166.2965 15.44642349222532","mean_motion":15.44642349,"eccentricity":0.00174,"inclination_deg":97.6072,"raan_deg":292.5026,"arg_perigee_deg":193.781,"mean_anomaly_deg":166.2965,"bstar":0.00024515,"rev_number":22253,"period_min":93.225464194495,"perigee_km":420.5787764649,"apogee_km":444.27954670722,"semimajor_km":6810.5661615861,"source":"CELESTRAK","updated_at":"2026-05-25T13:37:57.887127Z"}}}